{"data":{"norad_id":67091,"intl_designator":"2025-298S","name":"STARLINK-36097","alt_names":[],"object_type":"PAYLOAD","status":"ACTIVE","operator":null,"country":"US","launch_date":"2025-12-14","launch_site_code":"AFWTR","launch_vehicle":null,"mission":null,"orbit_class":"UNKNOWN","rcs_meters":null,"size_class":null,"mass_kg":null,"dimensions":null,"purposes":["comms"],"wikipedia_slug":null,"has_3d_model":false,"image_url":null,"decayed_at":null,"tle_current":{"epoch":"2026-09-20T22:00:03.000096Z","epoch_age_seconds":42282,"freshness":"FRESH","line1":"1 67091U 25298S   26263.91670139  .00034584  00000+0  41543-3 0  9997","line2":"2 67091  69.9817 208.2491 0008615 192.0353 158.4267 15.60672334  5582","mean_motion":15.60672334,"eccentricity":0.0008615,"inclination_deg":69.9817,"raan_deg":208.2491,"arg_perigee_deg":192.0353,"mean_anomaly_deg":158.4267,"bstar":0.00041543,"rev_number":558,"period_min":92.267926369226,"perigee_km":379.88675820727,"apogee_km":391.54087316269,"semimajor_km":6763.850815685,"source":"CELESTRAK","updated_at":"2026-09-21T09:00:36.100779Z"}}}